TimeEST,TemperatureF,Dew PointF,Humidity,Sea Level PressureIn,VisibilityMPH,Wind Direction,Wind SpeedMPH,Gust SpeedMPH,PrecipitationIn,Events,Conditions,WindDirDegrees,DateUTC
12:15 AM,33.8,30.2,87,29.91,10.0,Calm,Calm,-,N/A,,Overcast,0,2013-12-21 05:15:00
12:35 AM,33.8,30.2,87,29.90,8.0,Calm,Calm,-,N/A,,Overcast,0,2013-12-21 05:35:00
12:55 AM,33.8,30.2,87,29.89,7.0,East,3.5,-,N/A,,Overcast,80,2013-12-21 05:55:00
1:15 AM,33.8,30.2,87,29.89,7.0,Calm,Calm,-,N/A,,Overcast,0,2013-12-21 06:15:00
1:35 AM,33.8,30.2,87,29.90,5.0,Calm,Calm,-,N/A,,Overcast,0,2013-12-21 06:35:00
1:55 AM,33.8,30.2,87,29.89,6.0,Calm,Calm,-,N/A,,Overcast,0,2013-12-21 06:55:00
2:15 AM,33.8,30.2,87,29.90,5.0,Calm,Calm,-,N/A,,Overcast,0,2013-12-21 07:15:00
2:35 AM,33.8,32.0,93,29.89,4.0,Calm,Calm,-,N/A,,Overcast,0,2013-12-21 07:35:00
2:55 AM,33.8,30.2,87,29.89,4.0,Calm,Calm,-,N/A,,Overcast,0,2013-12-21 07:55:00
3:15 AM,33.8,30.2,87,29.88,4.0,Calm,Calm,-,N/A,,Overcast,0,2013-12-21 08:15:00
3:35 AM,33.8,32.0,93,29.89,5.0,Calm,Calm,-,N/A,,Overcast,0,2013-12-21 08:35:00
3:55 AM,33.8,30.2,87,29.88,5.0,Calm,Calm,-,N/A,,Overcast,0,2013-12-21 08:55:00
4:15 AM,33.8,32.0,93,29.89,5.0,Calm,Calm,-,N/A,,Overcast,0,2013-12-21 09:15:00
4:35 AM,33.8,30.2,87,29.89,6.0,Calm,Calm,-,N/A,,Overcast,0,2013-12-21 09:35:00
4:55 AM,33.8,30.2,87,29.89,5.0,Calm,Calm,-,N/A,,Overcast,0,2013-12-21 09:55:00
5:15 AM,33.8,30.2,87,29.89,5.0,Calm,Calm,-,N/A,,Overcast,0,2013-12-21 10:15:00
5:35 AM,33.8,32.0,93,29.89,6.0,SW,3.5,-,N/A,,Overcast,220,2013-12-21 10:35:00
5:55 AM,33.8,30.2,87,29.88,7.0,Calm,Calm,-,N/A,,Mostly Cloudy,0,2013-12-21 10:55:00
6:15 AM,33.8,30.2,87,29.89,8.0,Calm,Calm,-,N/A,,Partly Cloudy,0,2013-12-21 11:15:00
6:35 AM,33.8,30.2,87,29.90,5.0,Calm,Calm,-,N/A,,Mostly Cloudy,0,2013-12-21 11:35:00
6:55 AM,33.8,30.2,87,29.90,6.0,Calm,Calm,-,N/A,,Overcast,0,2013-12-21 11:55:00
7:15 AM,33.8,30.2,87,29.89,5.0,Calm,Calm,-,N/A,,Scattered Clouds,0,2013-12-21 12:15:00
7:35 AM,33.8,30.2,87,29.89,3.0,Calm,Calm,-,N/A,,Partly Cloudy,0,2013-12-21 12:35:00
7:55 AM,33.8,30.2,87,29.88,4.0,Calm,Calm,-,N/A,,Partly Cloudy,0,2013-12-21 12:55:00
8:15 AM,33.8,30.2,87,29.89,4.0,Calm,Calm,-,N/A,,Partly Cloudy,0,2013-12-21 13:15:00
8:35 AM,35.6,32.0,87,29.90,7.0,Calm,Calm,-,N/A,,Scattered Clouds,0,2013-12-21 13:35:00
8:55 AM,33.8,30.2,87,29.90,9.0,East,3.5,-,N/A,,Scattered Clouds,80,2013-12-21 13:55:00
9:15 AM,33.8,30.2,87,29.91,8.0,Calm,Calm,-,N/A,,Partly Cloudy,0,2013-12-21 14:15:00
9:35 AM,35.6,32.0,87,29.91,7.0,Calm,Calm,-,N/A,,Mostly Cloudy,0,2013-12-21 14:35:00
9:55 AM,35.6,30.2,81,29.91,8.0,Calm,Calm,-,N/A,,Partly Cloudy,0,2013-12-21 14:55:00
10:15 AM,35.6,30.2,81,29.91,8.0,Calm,Calm,-,N/A,,Clear,0,2013-12-21 15:15:00
10:35 AM,35.6,30.2,81,29.90,9.0,Calm,Calm,-,N/A,,Mostly Cloudy,0,2013-12-21 15:35:00
10:55 AM,35.6,30.2,81,29.90,9.0,Calm,Calm,-,N/A,,Overcast,0,2013-12-21 15:55:00
11:15 AM,35.6,32.0,87,29.88,10.0,Calm,Calm,-,N/A,,Mostly Cloudy,0,2013-12-21 16:15:00
11:35 AM,35.6,30.2,81,29.86,10.0,ENE,5.8,-,N/A,,Overcast,70,2013-12-21 16:35:00
11:55 AM,35.6,30.2,81,29.83,10.0,Calm,Calm,-,N/A,,Scattered Clouds,0,2013-12-21 16:55:00
12:15 PM,37.4,32.0,81,29.84,10.0,West,3.5,-,N/A,,Clear,270,2013-12-21 17:15:00
12:35 PM,39.2,32.0,75,29.85,10.0,SW,5.8,-,N/A,,Clear,220,2013-12-21 17:35:00
12:55 PM,39.2,32.0,75,29.84,10.0,WSW,5.8,-,N/A,,Clear,240,2013-12-21 17:55:00
1:15 PM,42.8,33.8,70,29.83,10.0,West,4.6,-,N/A,,Scattered Clouds,280,2013-12-21 18:15:00
1:35 PM,42.8,35.6,76,29.85,10.0,West,9.2,-,N/A,,Overcast,260,2013-12-21 18:35:00
1:55 PM,42.8,33.8,70,29.83,10.0,West,4.6,-,N/A,,Overcast,280,2013-12-21 18:55:00
2:15 PM,39.2,33.8,81,29.83,10.0,Calm,Calm,-,N/A,,Overcast,0,2013-12-21 19:15:00
2:35 PM,37.4,32.0,81,29.84,10.0,Calm,Calm,-,N/A,,Mostly Cloudy,0,2013-12-21 19:35:00
2:55 PM,39.2,33.8,81,29.84,10.0,Calm,Calm,-,N/A,,Scattered Clouds,0,2013-12-21 19:55:00
3:15 PM,37.4,33.8,87,29.83,10.0,East,3.5,-,N/A,,Mostly Cloudy,80,2013-12-21 20:15:00
3:35 PM,37.4,33.8,87,29.85,9.0,Calm,Calm,-,N/A,,Overcast,0,2013-12-21 20:35:00
3:55 PM,35.6,33.8,93,29.84,6.0,East,3.5,-,N/A,,Overcast,100,2013-12-21 20:55:00
4:15 PM,37.4,33.8,87,29.85,5.0,Calm,Calm,-,N/A,,Overcast,0,2013-12-21 21:15:00
4:35 PM,37.4,33.8,87,29.86,5.0,Calm,Calm,-,N/A,,Overcast,0,2013-12-21 21:35:00
4:55 PM,35.6,33.8,93,29.85,3.0,Calm,Calm,-,N/A,,Overcast,0,2013-12-21 21:55:00
5:15 PM,37.4,33.8,87,29.86,5.0,Calm,Calm,-,N/A,,Mostly Cloudy,0,2013-12-21 22:15:00
5:35 PM,35.6,33.8,93,29.88,3.0,WSW,4.6,-,N/A,,Overcast,240,2013-12-21 22:35:00
5:55 PM,37.4,35.6,93,29.88,2.0,Calm,Calm,-,N/A,,Overcast,0,2013-12-21 22:55:00
6:15 PM,37.4,35.6,93,29.87,1.8,Calm,Calm,-,N/A,,Overcast,0,2013-12-21 23:15:00
6:35 PM,35.6,33.8,93,29.87,0.5,ENE,3.5,-,N/A,,Mostly Cloudy,60,2013-12-21 23:35:00
6:55 PM,35.6,33.8,93,29.87,1.5,Calm,Calm,-,N/A,,Mostly Cloudy,0,2013-12-21 23:55:00
7:15 PM,35.6,33.8,93,29.87,0.8,Calm,Calm,-,N/A,,Overcast,0,2013-12-22 00:15:00
7:35 PM,35.6,33.8,93,29.88,0.8,Calm,Calm,-,N/A,,Overcast,0,2013-12-22 00:35:00
7:55 PM,35.6,33.8,93,29.89,1.8,Calm,Calm,-,N/A,,Overcast,0,2013-12-22 00:55:00
8:15 PM,35.6,33.8,93,29.88,1.0,Calm,Calm,-,N/A,,Overcast,0,2013-12-22 01:15:00
8:35 PM,35.6,33.8,93,29.89,1.2,NW,4.6,-,N/A,,Overcast,320,2013-12-22 01:35:00
8:55 PM,35.6,33.8,93,29.89,1.5,Calm,Calm,-,N/A,,Mostly Cloudy,0,2013-12-22 01:55:00
9:15 PM,35.6,33.8,93,29.89,0.5,Calm,Calm,-,N/A,,Overcast,0,2013-12-22 02:15:00
9:35 PM,35.6,33.8,93,29.88,0.5,Calm,Calm,-,N/A,,Overcast,0,2013-12-22 02:35:00
9:55 PM,35.6,33.8,93,29.88,0.8,Calm,Calm,-,N/A,,Overcast,0,2013-12-22 02:55:00
10:15 PM,35.6,33.8,93,29.88,0.5,Calm,Calm,-,N/A,,Overcast,0,2013-12-22 03:15:00
10:35 PM,35.6,33.8,93,29.88,0.8,Calm,Calm,-,N/A,,Overcast,0,2013-12-22 03:35:00
10:55 PM,35.6,33.8,93,29.89,1.0,Calm,Calm,-,N/A,,Overcast,0,2013-12-22 03:55:00
11:15 PM,35.6,33.8,93,29.89,1.0,Calm,Calm,-,N/A,,Overcast,0,2013-12-22 04:15:00
11:35 PM,35.6,33.8,93,29.87,1.0,Calm,Calm,-,N/A,,Mostly Cloudy,0,2013-12-22 04:35:00
11:55 PM,35.6,33.8,93,29.87,0.5,East,3.5,-,N/A,,Overcast,80,2013-12-22 04:55:00